GFSGL_con_mucape_207.txt.gz
CAPE
0 0 0 28 136 320 568 758 791 753 590 538 491 372 322 316 303 233 270 323 347 420 245 309 307 168 22 0 0 0 0 0 0 0 0 0 0 0 0 0 0 0 0
0 0 0 0 157 102 120 387 653 797 705 577 514 454 431 296 173 178 225 264 249 201 139 237 238 225 9 0 0 0 0 0 0 0 0 0 0 0 0 0 0 0 0
0 0 0 0 0 41 88 161 651 855 796 679 562 506 429 306 173 89 64 126 145 148 127 215 191 165 0 0 0 0 0 0 0 0 0 0 0 0 0 0 0 0 0
0 0 0 0 0 0 1 50 554 824 828 740 573 586 379 236 116 48 12 37 15 97 70 200 150 113 0 0 0 0 0 0 0 0 0 0 0 0 0 0 0 0 0
0 0 0 0 0 0 5 13 270 686 792 707 541 444 300 138 72 36 49 31 37 50 100 85 126 20 0 0 0 0 0 0 0 0 0 0 0 0 0 0 0 0 0
0 0 0 0 0 0 0 1 135 449 685 697 491 360 220 64 38 44 98 43 10 21 71 107 113 3 0 0 0 0 0 0 0 0 0 0 0 0 0 0 0 0 0
0 0 0 0 0 0 0 16 104 477 566 650 433 367 209 58 34 72 48 19 39 46 84 106 103 0 0 0 0 0 0 0 0 0 0 0 0 0 0 0 0 0 0
0 0 0 0 0 0 0 0 54 396 429 480 400 253 163 74 35 26 2 15 71 61 78 93 68 0 0 0 0 0 0 0 0 0 0 0 0 0 0 0 0 0 0
0 0 0 0 0 0 0 0 47 318 402 332 148 172 83 63 63 14 18 40 73 74 80 93 0 0 0 0 0 0 0 0 0 0 0 0 0 0 0 0 0 0 0
0 0 0 0 0 0 0 0 71 121 199 221 85 56 38 37 29 16 11 75 79 61 75 52 0 0 0 0 0 0 0 0 0 0 0 0 0 0 0 0 0 0 0
0 0 0 0 0 0 0 0 94 118 123 86 118 91 46 24 58 74 89 93 79 83 64 0 0 0 0 0 0 0 0 0 0 0 0 0 0 0 0 0 0 0 0
0 0 0 0 0 0 0 0 129 194 146 133 12 0 7 61 51 36 97 47 24 79 66 0 0 0 0 0 0 0 0 0 0 0 0 0 0 0 0 0 0 0 0
0 0 0 0 0 0 0 16 215 224 155 77 38 17 0 8 84 91 55 25 38 75 42 0 0 0 0 0 0 0 0 0 0 0 0 0 0 0 0 0 0 0 0
0 0 0 0 0 0 16 120 249 198 112 51 0 0 0 0 66 68 57 47 69 30 0 0 0 0 0 0 0 0 0 0 0 0 0 0 0 0 0 0 0 0 0
0 0 0 0 0 0 23 269 356 220 155 40 0 0 0 6 66 29 8 13 47 15 1 0 0 0 0 0 0 0 0 0 0 0 0 0 0 0 0 0 0 0 0
0 0 0 0 0 0 44 249 378 323 209 117 17 6 27 67 66 8 17 7 20 17 1 13 0 0 0 0 0 0 0 0 0 0 0 0 0 0 0 0 0 0 0
1 3 0 0 0 7 170 285 396 357 308 170 45 60 15 52 45 25 14 29 21 18 13 19 9 2 0 0 0 0 0 0 0 0 0 0 0 0 0 0 0 0 0
9 3 0 0 7 99 196 383 156 382 131 131 94 50 20 16 19 44 16 24 11 20 2 3 16 1 0 0 0 0 0 0 0 0 0 0 0 0 0 0 0 0 0
15 8 15 98 212 222 211 210 163 191 103 105 100 36 38 56 59 39 24 10 20 3 5 11 0 0 0 0 0 0 0 0 0 0 0 0 0 0 0 0 0 0 0
30 55 91 251 389 242 275 145 85 224 158 6 54 42 22 34 32 12 6 19 5 12 17 8 0 0 0 0 0 0 0 0 0 0 0 0 0 0 0 0 0 0 0
29 357 309 315 330 342 233 184 130 124 93 52 49 27 18 20 6 0 4 19 3 7 6 8 0 0 0 0 0 0 0 0 0 0 0 0 0 0 0 0 0 0 0
377 241 270 327 290 238 58 80 105 59 37 34 8 13 2 0 0 5 8 3 7 7 1 0 0 0 0 0 0 0 0 0 0 0 0 0 0 0 0 0 0 0 0
97 217 244 215 114 40 92 40 30 13 3 13 15 0 1 0 4 11 1 2 0 0 0 0 0 0 0 0 0 0 0 0 0 0 0 0 0 0 0 0 0 0 0
41 90 136 100 81 59 1 33 24 16 0 15 0 2 0 0 5 3 2 2 3 1 0 0 0 0 0 0 0 0 0 0 0 0 0 0 0 0 0 0 0 0 0
0 20 55 62 79 48 0 0 0 0 5 14 2 3 1 3 7 3 2 5 0 2 0 0 0 0 0 0 0 0 0 0 0 0 0 0 0 0 0 0 0 0 0
13 21 0 6 33 28 28 11 0 0 14 6 0 30 19 9 5 4 5 4 2 1 0 0 0 0 0 0 0 0 0 0 0 0 0 0 0 0 0 0 0 0 0

GFSGL_con_mucape_210.txt.gz
CAPE
0 0 0 0 0 0 0 88 195 530 711 684 760 729 610 529 514 447 351 239 159 108 46 172 198 320 207 244 142 3 0 0 0 0 0 0 0 0 2 0 0 0 0
0 0 0 0 0 0 0 1 76 63 333 642 724 805 689 570 489 391 543 366 211 168 83 136 184 244 226 246 161 6 0 0 0 0 0 0 0 0 0 0 0 0 0
0 0 0 0 0 0 0 0 0 13 107 550 766 763 727 662 571 490 386 439 264 152 91 147 156 189 181 223 131 8 0 0 0 0 0 0 0 0 0 0 0 0 0
0 0 0 0 0 0 0 0 0 0 0 323 669 809 775 773 691 541 408 360 219 110 83 118 194 118 98 124 76 0 0 0 0 0 0 0 0 0 0 0 0 0 0
0 0 0 0 0 0 0 0 0 0 0 107 530 819 804 776 636 514 308 335 189 134 91 91 124 84 61 56 8 0 0 0 0 0 0 0 0 0 0 0 0 0 0
0 0 0 0 0 0 0 0 0 0 0 18 422 822 763 682 531 491 352 200 179 104 67 68 44 19 20 22 0 0 0 0 0 0 0 0 0 0 0 0 0 0 0
0 0 0 0 0 0 0 0 0 0 0 6 402 731 838 620 446 404 293 228 177 126 51 5 6 34 49 1 0 0 0 0 0 0 0 0 0 0 0 0 0 0 0
0 0 0 0 0 0 0 0 0 0 0 0 338 589 735 588 404 318 218 122 78 50 51 23 25 66 26 7 0 0 0 0 0 0 0 0 0 0 0 0 0 0 0
0 0 0 0 0 0 0 0 0 0 0 0 324 573 632 544 369 201 125 96 21 8 11 5 63 68 38 8 0 0 0 0 0 0 0 0 0 0 0 0 0 0 0
12 2 0 0 0 0 0 0 0 0 0 13 152 615 556 351 218 124 122 78 41 23 30 75 95 56 35 0 0 0 0 0 0 0 0 0 0 0 0 0 0 0 0
3 6 0 0 0 0 0 0 0 0 4 132 206 371 174 104 180 45 51 29 48 27 42 53 66 47 3 0 0 0 0 0 0 0 0 0 0 0 0 0 0 0 0
0 0 0 0 0 0 0 0 0 8 0 170 248 209 115 0 16 64 82 45 62 27 38 70 48 60 0 0 0 0 0 0 0 0 0 0 0 0 0 0 0 0 0
0 0 0 0 0 0 0 0 0 0 0 261 214 150 134 4 0 23 35 6 27 26 96 61 77 6 0 0 0 0 0 0 0 0 0 0 0 0 0 0 0 0 0
0 0 0 0 2 0 0 0 0 0 69 309 203 125 17 15 0 2 40 24 21 33 92 58 43 0 0 0 0 0 0 0 0 0 0 0 0 0 0 0 0 0 0
0 0 1 1 0 0 0 0 3 39 171 278 197 138 13 0 0 1 0 36 13 83 44 31 0 0 0 0 0 0 0 0 0 0 0 0 0 0 0 0 0 0 0
0 0 0 0 0 0 0 0 0 183 281 224 139 108 11 30 3 3 4 21 88 13 9 5 0 0 0 0 0 0 0 0 0 0 0 0 0 0 0 0 0 0 0
21 6 5 12 0 0 0 0 18 271 317 279 135 82 46 19 7 2 31 48 17 4 4 6 0 0 0 0 0 0 0 0 0 0 0 0 0 0 0 0 0 0 0
11 5 7 16 3 0 0 0 157 325 325 348 155 111 72 23 23 14 45 28 15 5 2 3 0 0 0 0 0 0 0 0 0 0 0 0 0 0 0 0 0 0 0
5 7 14 6 5 2 3 125 207 162 199 292 241 80 66 21 45 54 58 7 17 4 7 2 1 0 0 0 0 0 0 0 0 0 0 0 0 0 0 0 0 0 0
12 16 8 8 28 29 60 110 176 175 155 293 225 78 93 63 22 6 3 12 2 7 4 3 4 0 0 0 0 0 0 0 0 0 0 0 0 0 0 0 0 0 0
15 22 16 22 24 25 249 219 158 133 134 203 134 81 95 66 66 18 9 10 3 3 2 7 7 4 0 0 0 0 0 0 0 0 0 0 0 0 0 0 0 0 0
23 22 112 173 172 186 123 173 217 120 143 102 70 79 6 42 11 22 5 1 2 9 2 11 10 0 0 0 0 0 0 0 0 0 0 0 0 0 0 0 0 0 0
79 139 183 237 395 353 321 318 242 197 186 77 40 49 22 4 0 25 2 0 2 10 6 2 2 1 0 0 0 0 0 0 0 0 0 0 0 0 0 0 0 0 0
137 245 158 323 385 227 118 309 47 27 20 69 44 43 5 6 10 2 2 3 2 3 4 3 11 0 0 0 0 0 0 0 0 0 0 0 0 0 0 0 0 0 0
29 145 196 140 115 47 23 18 42 1 32 30 20 12 9 1 1 4 0 4 2 2 5 0 1 6 12 3 0 0 0 0 0 0 0 0 0 0 0 0 0 0 0
1 21 26 32 38 8 27 6 21 19 7 10 1 15 13 3 3 4 3 0 0 0 0 0 0 1 0 0 0 0 0 0 0 0 0 0 0 0 0 0 0 0 0

GFSGL_con_mucape_216.txt.gz
CAPE
307 258 190 138 120 254 230 129 35 30 8 1 9 150 410 931 1213 1577 1470 1304 998 1457 1464 1504 1532 1682 1547 897 429 547 438 699 783 52 52 4 5 1 3 17 0 0 0
191 135 124 101 117 284 276 59 10 15 0 0 0 0 2 213 812 1069 1058 1325 948 918 1071 1196 1387 1348 1290 1506 301 173 432 487 171 102 87 13 3 9 19 18 0 2 7
55 10 30 120 203 277 216 77 10 0 0 0 0 0 0 0 145 570 803 859 1227 956 1018 932 995 1239 1358 875 520 304 319 170 124 85 131 20 7 7 20 19 19 2 10
0 0 2 148 232 182 159 112 94 16 0 0 0 0 0 0 0 105 418 632 838 963 986 1052 935 1014 1093 1138 632 416 223 83 78 66 162 78 1 18 19 15 19 7 12
0 2 48 153 154 143 170 142 117 53 11 0 0 0 0 0 0 9 246 485 1011 901 1200 864 1158 687 654 957 434 147 61 66 80 77 115 58 0 9 3 10 7 7 22
0 5 14 23 22 39 53 64 114 72 40 16 0 0 0 0 0 0 0 767 719 1048 1318 1055 1007 675 656 698 308 34 51 76 102 90 62 37 0 1 2 6 0 5 4
0 0 0 0 0 0 0 0 6 275 264 32 1 0 0 0 0 0 0 214 701 1096 1273 1167 1096 987 529 319 233 128 90 87 55 64 62 17 0 3 8 6 2 1 0
0 0 0 0 0 0 0 104 422 441 315 22 6 1 0 0 0 0 0 143 697 918 1165 1101 1252 795 245 271 248 62 54 61 65 37 56 0 0 11 2 0 0 3 1
0 0 0 0 0 3 8 103 450 239 108 36 23 17 2 0 0 0 0 153 390 757 780 1200 1133 563 236 201 139 60 55 36 61 48 43 0 0 0 0 0 0 0 0
5 5 9 19 22 27 98 376 359 253 105 44 27 34 3 1 0 0 0 31 699 1055 1136 976 626 359 282 245 157 99 35 52 50 56 8 0 0 0 0 0 0 0 0
28 32 33 69 100 73 54 75 145 151 153 124 47 98 99 13 9 0 0 14 631 790 460 430 366 245 322 256 181 74 7 55 45 45 25 0 0 0 0 0 0 0 0
26 38 34 69 62 47 105 70 77 111 154 194 146 127 85 202 0 0 0 0 109 602 415 305 295 158 229 122 78 34 39 33 22 61 11 0 0 0 0 0 0 0 0
0 0 0 4 4 23 65 66 54 85 73 33 33 52 89 51 57 5 0 0 174 385 306 364 223 155 183 105 3 16 30 30 35 10 1 0 0 0 0 0 0 0 0
0 0 0 0 0 0 0 48 45 51 65 58 47 71 115 58 139 297 173 134 74 50 294 440 198 199 140 125 114 58 61 18 1 26 0 0 0 0 0 0 0 0 0
0 0 0 0 0 0 0 0 0 59 23 48 43 73 83 90 217 131 43 188 165 178 356 104 51 151 86 86 88 36 13 14 0 0 0 0 0 0 0 0 0 0 0
4 0 0 0 0 0 0 8 0 0 3 0 2 9 40 29 65 71 190 179 14 9 39 48 1 8 20 46 12 6 8 6 2 0 0 0 0 0 0 0 0 0 0
0 0 0 0 0 0 0 2 3 0 1 0 0 0 0 0 1 36 112 115 0 0 12 10 1 0 0 0 14 10 2 1 0 0 0 0 0 0 0 0 0 0 0
0 0 6 6 0 6 7 7 5 0 2 0 7 0 0 0 7 123 56 115 7 14 5 2 2 3 0 0 15 2 6 0 0 0 0 0 0 0 0 0 0 0 0
4 3 0 8 10 5 8 4 3 0 2 0 0 15 2 0 13 69 63 27 0 6 18 0 0 2 2 16 18 15 1 0 0 0 0 0 0 0 0 0 0 0 0
7 13 10 18 6 10 8 7 0 1 5 5 23 13 18 99 97 63 16 0 1 0 0 0 0 1 1 11 21 4 0 0 0 0 0 0 0 0 0 0 0 0 0
18 13 20 8 13 5 20 5 1 13 70 9 61 55 100 76 19 2 0 0 0 0 0 4 15 50 20 42 2 0 0 0 0 0 0 0 0 0 0 0 0 0 0
11 19 36 30 17 18 5 26 123 111 12 100 112 93 79 49 37 0 0 0 0 1 1 1 1 12 26 9 0 0 0 0 0 0 0 0 0 0 0 0 0 0 0
21 53 23 6 5 7 36 51 154 18 64 103 65 74 77 0 0 0 0 0 3 4 19 14 15 10 11 4 0 0 0 0 0 0 0 0 0 0 0 0 0 0 0
12 70 36 23 27 15 12 30 52 33 95 45 60 62 6 0 0 0 23 23 19 20 22 4 4 17 1 0 0 0 0 0 0 0 0 0 0 0 0 0 0 0 0
14 75 124 76 115 76 114 80 75 219 150 130 91 62 64 46 0 0 0 15 7 3 2 3 3 5 0 0 0 0 0 0 0 0 0 0 0 0 0 0 0 0 0
43 71 66 111 106 147 116 100 142 92 128 119 90 76 70 34 15 17 4 17 5 0 0 4 4 0 0 0 0 0 0 0 0 0 0 0 0 0 0 0 0 0 0

GFSGL_con_mucape_219.txt.gz
CAPE
202 452 673 630 720 797 904 597 489 459 310 177 74 22 27 184 794 1804 1808 1107 1597 1757 1834 1711 1709 1902 1531 1858 1893 1524 1137 1054 857 95 81 156 82 5 0 3 0 0 0
81 377 497 884 683 1335 1026 762 404 267 234 86 1 0 0 0 143 535 837 890 1261 1180 1208 1523 1635 1493 1916 2060 1928 1676 1139 1350 1023 102 39 21 1 1 0 0 0 0 0
50 107 851 1336 1140 1395 1390 1050 400 170 72 37 0 0 0 0 0 0 31 399 1063 1352 1410 1426 1489 1489 1670 1772 1862 1511 1148 810 554 172 46 8 31 25 0 0 6 47 0
34 135 864 1163 1056 1108 1152 1108 648 260 136 37 34 13 0 0 0 0 0 157 798 873 1450 1326 1327 1269 1606 1696 1727 1646 962 559 268 131 65 68 8 27 0 2 18 26 0
32 107 250 371 376 792 1108 729 734 708 323 232 83 34 18 0 0 23 0 10 568 1070 1201 1050 1276 1319 844 1007 1547 1522 980 345 126 124 55 30 6 40 37 13 17 24 38
54 70 106 166 209 859 1120 924 1103 779 457 628 442 108 500 0 0 0 0 0 28 493 1028 1088 1361 927 649 695 544 717 838 933 107 71 43 10 9 28 6 18 27 26 6
20 25 36 44 54 221 303 597 770 979 1199 1173 1023 693 737 718 0 0 0 1 44 159 831 1237 1001 565 712 1011 580 473 463 356 148 55 4 8 45 1 12 18 38 15 9
8 8 2 1 45 198 293 477 747 1020 1157 1209 1161 1070 878 645 0 0 0 0 12 105 402 1019 1279 1163 1117 932 1028 458 417 318 251 29 25 43 29 17 0 7 41 24 19
0 0 0 0 60 157 193 284 498 798 958 957 804 795 870 705 11 1 0 0 0 110 164 713 1188 1165 806 727 912 526 197 285 213 120 24 42 14 19 0 4 2 0 2
0 0 1 4 31 79 204 386 590 666 652 425 603 804 407 603 51 12 0 0 9 0 248 741 434 503 747 737 803 297 171 235 202 110 53 35 4 0 0 0 0 0 0
5 8 18 49 71 104 98 383 512 191 266 460 346 591 720 607 578 17 3 0 2 0 0 188 528 548 599 699 625 227 181 169 194 70 11 35 1 29 0 3 0 0 0
12 16 9 18 43 21 106 109 83 79 218 223 74 106 226 442 74 8 0 0 0 11 48 20 524 703 548 657 553 305 250 176 114 19 39 12 1 29 0 2 0 7 0
0 0 0 0 0 2 70 64 87 78 86 98 83 77 168 184 197 1 0 0 0 0 11 111 503 361 271 365 335 251 161 135 120 34 27 18 4 0 0 0 0 0 0
0 0 0 0 0 0 0 0 0 11 95 56 76 74 63 72 209 739 235 45 0 0 0 0 115 304 348 318 217 149 97 115 95 73 1 10 3 0 0 0 0 0 0
0 0 0 0 0 0 0 0 0 0 0 0 97 104 75 59 58 37 58 361 851 147 20 1 402 304 225 234 171 160 75 67 28 63 6 8 0 2 0 0 0 0 0
0 0 0 0 13 8 0 0 0 0 0 0 0 7 11 7 6 11 23 276 296 173 175 159 31 87 272 123 249 134 65 18 7 10 2 6 1 0 0 0 0 0 0
0 3 1 0 0 0 0 0 0 0 0 0 0 0 0 0 2 0 3 63 179 94 142 36 46 114 178 23 171 113 79 3 0 0 11 23 0 0 0 0 0 0 0
2 0 0 0 0 1 2 1 2 0 0 0 0 0 0 0 0 0 0 3 84 61 63 7 12 12 16 0 60 99 45 12 9 4 21 8 0 0 0 0 0 0 0
0 4 1 0 2 0 0 8 4 1 10 12 1 0 0 0 0 0 0 0 1 53 55 0 0 1 38 0 8 26 2 3 5 9 6 0 0 0 0 0 0 0 0
7 9 3 0 2 8 9 7 8 0 7 5 5 15 8 9 9 2 0 0 8 17 35 5 0 1 9 6 12 6 0 20 9 4 2 0 0 0 0 0 0 0 0
0 14 12 19 27 23 9 4 13 6 5 17 17 10 3 19 15 5 0 0 61 43 16 25 1 19 11 16 6 10 0 7 3 2 0 0 0 0 0 0 0 0 0
0 7 0 12 19 13 11 13 15 13 13 3 10 131 40 54 0 19 27 55 35 49 2 3 0 0 2 3 1 5 3 1 3 0 0 0 0 0 0 0 0 0 0
0 4 42 15 2 6 13 9 6 18 15 40 76 82 86 53 64 26 64 54 10 13 0 1 0 0 0 0 2 1 3 20 1 0 0 0 0 0 0 0 0 0 0
0 10 40 33 54 17 25 22 140 33 22 54 96 72 89 59 9 0 0 0 15 3 0 0 0 3 5 0 2 0 4 6 0 0 0 0 0 0 0 0 0 0 0
5 52 44 40 16 34 42 24 27 60 38 85 88 67 52 3 0 0 0 0 0 1 1 3 1 2 3 0 0 0 0 0 0 0 0 0 0 0 0 0 0 0 0
42 58 40 51 21 49 73 74 78 135 146 175 146 81 9 0 0 0 0 0 0 0 0 0 1 1 0 0 8 1 0 0 0 0 0 0 0 0 0 0 0 0 0